TimeEST,TemperatureF,Dew PointF,Humidity,Sea Level PressureIn,VisibilityMPH,Wind Direction,Wind SpeedMPH,Gust SpeedMPH,PrecipitationIn,Events,Conditions,WindDirDegrees,DateUTC
12:15 AM,46.9,45.3,94,30.38,10.0,Calm,Calm,-,N/A,,Clear,0,2013-01-09 05:15:00
12:55 AM,46.6,44.8,93,30.37,10.0,Calm,Calm,-,N/A,,Clear,0,2013-01-09 05:55:00
1:15 AM,46.8,45.0,93,30.38,10.0,Calm,Calm,-,N/A,,Clear,0,2013-01-09 06:15:00
1:35 AM,46.6,44.8,93,30.37,10.0,Calm,Calm,-,N/A,,Clear,0,2013-01-09 06:35:00
1:55 AM,46.4,44.8,94,30.37,10.0,Calm,Calm,-,N/A,,Clear,0,2013-01-09 06:55:00
2:15 AM,46.4,45.0,95,30.37,10.0,Calm,Calm,-,N/A,,Clear,0,2013-01-09 07:15:00
2:35 AM,46.2,44.8,95,30.36,10.0,ENE,3.5,-,N/A,,Clear,60,2013-01-09 07:35:00
2:55 AM,46.2,44.8,95,30.36,10.0,Calm,Calm,-,N/A,,Clear,0,2013-01-09 07:55:00
3:15 AM,45.9,44.4,95,30.36,7.0,Calm,Calm,-,N/A,,Clear,0,2013-01-09 08:15:00
3:35 AM,46.2,45.0,95,30.36,10.0,Calm,Calm,-,N/A,,Clear,0,2013-01-09 08:35:00
3:55 AM,46.9,45.5,95,30.37,10.0,Calm,Calm,-,N/A,,Clear,0,2013-01-09 08:55:00
4:15 AM,46.6,45.0,94,30.38,10.0,Calm,Calm,-,N/A,,Clear,0,2013-01-09 09:15:00
4:35 AM,46.2,44.8,95,30.38,10.0,North,4.6,-,N/A,,Clear,350,2013-01-09 09:35:00
4:55 AM,46.2,44.6,94,30.38,10.0,North,3.5,-,N/A,,Scattered Clouds,350,2013-01-09 09:55:00
5:15 AM,46.0,44.4,94,30.38,10.0,Calm,Calm,-,N/A,,Mostly Cloudy,0,2013-01-09 10:15:00
5:35 AM,45.7,44.1,94,30.38,10.0,North,3.5,-,N/A,,Scattered Clouds,10,2013-01-09 10:35:00
5:55 AM,45.7,44.1,94,30.38,10.0,Calm,Calm,-,N/A,,Scattered Clouds,0,2013-01-09 10:55:00
6:15 AM,45.7,43.9,93,30.38,10.0,Calm,Calm,-,N/A,,Scattered Clouds,0,2013-01-09 11:15:00
6:35 AM,45.3,43.9,95,30.38,10.0,Calm,Calm,-,N/A,,Scattered Clouds,0,2013-01-09 11:35:00
6:55 AM,45.5,44.1,95,30.38,10.0,NNE,4.6,-,N/A,,Clear,20,2013-01-09 11:55:00
7:15 AM,46.0,44.6,95,30.39,10.0,NNE,3.5,-,N/A,,Clear,20,2013-01-09 12:15:00
7:35 AM,46.0,44.4,94,30.41,10.0,Calm,Calm,-,N/A,,Clear,0,2013-01-09 12:35:00
7:55 AM,46.8,45.1,94,30.41,10.0,Calm,Calm,-,N/A,,Scattered Clouds,0,2013-01-09 12:55:00
8:15 AM,47.7,45.9,93,30.41,10.0,Calm,Calm,-,N/A,,Clear,0,2013-01-09 13:15:00
8:35 AM,49.5,46.8,90,30.42,10.0,Calm,Calm,-,N/A,,Clear,0,2013-01-09 13:35:00
8:55 AM,50.7,46.9,87,30.43,10.0,Calm,Calm,-,N/A,,Clear,0,2013-01-09 13:55:00
9:15 AM,52.3,47.3,83,30.43,10.0,Calm,Calm,-,N/A,,Clear,0,2013-01-09 14:15:00
9:35 AM,54.5,47.7,78,30.42,10.0,East,3.5,-,N/A,,Scattered Clouds,90,2013-01-09 14:35:00
9:55 AM,55.2,46.9,74,30.42,10.0,Calm,Calm,-,N/A,,Scattered Clouds,0,2013-01-09 14:55:00
10:15 AM,55.0,46.9,74,30.42,10.0,Calm,Calm,-,N/A,,Scattered Clouds,0,2013-01-09 15:15:00
10:35 AM,57.0,47.7,71,30.40,10.0,Calm,Calm,-,N/A,,Clear,0,2013-01-09 15:35:00
11:15 AM,56.1,47.7,73,30.39,10.0,West,3.5,-,N/A,,Clear,280,2013-01-09 16:15:00
11:35 AM,57.2,48.0,71,30.38,10.0,Calm,Calm,-,N/A,,Clear,0,2013-01-09 16:35:00
11:55 AM,60.6,49.1,66,30.38,10.0,Calm,Calm,-,N/A,,Clear,0,2013-01-09 16:55:00
12:15 PM,60.8,49.1,65,30.37,10.0,Calm,Calm,-,N/A,,Clear,0,2013-01-09 17:15:00
12:55 PM,60.6,48.9,65,30.36,10.0,Calm,Calm,-,N/A,,Clear,0,2013-01-09 17:55:00
1:15 PM,61.3,49.3,65,30.35,10.0,Calm,Calm,-,N/A,,Clear,0,2013-01-09 18:15:00
1:35 PM,61.0,49.6,66,30.35,10.0,Calm,Calm,-,N/A,,Clear,0,2013-01-09 18:35:00
1:55 PM,61.5,49.5,65,30.34,10.0,Calm,Calm,-,N/A,,Clear,0,2013-01-09 18:55:00
2:15 PM,62.1,49.8,64,30.33,10.0,South,3.5,-,N/A,,Clear,170,2013-01-09 19:15:00
2:35 PM,61.9,50.4,66,30.35,10.0,Calm,Calm,-,N/A,,Clear,0,2013-01-09 19:35:00
2:55 PM,60.8,50.4,68,30.35,10.0,Calm,Calm,-,N/A,,Clear,0,2013-01-09 19:55:00
3:15 PM,61.7,50.2,66,30.34,10.0,Calm,Calm,-,N/A,,Clear,0,2013-01-09 20:15:00
3:35 PM,59.7,49.8,70,30.34,10.0,Calm,Calm,-,N/A,,Clear,0,2013-01-09 20:35:00
3:55 PM,58.3,49.6,73,30.35,10.0,Calm,Calm,-,N/A,,Clear,0,2013-01-09 20:55:00
4:15 PM,57.0,49.8,77,30.35,10.0,Calm,Calm,-,N/A,,Clear,0,2013-01-09 21:15:00
4:35 PM,56.5,50.7,81,30.35,10.0,Calm,Calm,-,N/A,,Clear,0,2013-01-09 21:35:00
4:55 PM,55.9,50.9,83,30.35,10.0,Calm,Calm,-,N/A,,Clear,0,2013-01-09 21:55:00
5:15 PM,55.2,50.9,85,30.36,10.0,Calm,Calm,-,N/A,,Clear,0,2013-01-09 22:15:00
5:35 PM,54.7,50.9,87,30.35,10.0,Calm,Calm,-,N/A,,Clear,0,2013-01-09 22:35:00
6:15 PM,54.3,50.9,88,30.36,10.0,Calm,Calm,-,N/A,,Clear,0,2013-01-09 23:15:00
6:35 PM,55.2,50.7,85,30.36,10.0,SSW,3.5,-,N/A,,Clear,210,2013-01-09 23:35:00
6:55 PM,55.4,50.2,83,30.36,10.0,SSW,3.5,-,N/A,,Clear,200,2013-01-09 23:55:00
7:15 PM,55.0,50.2,84,30.35,10.0,SSW,4.6,-,N/A,,Clear,200,2013-01-10 00:15:00
7:35 PM,55.2,50.4,84,30.33,10.0,SSW,4.6,-,N/A,,Clear,200,2013-01-10 00:35:00
7:55 PM,55.6,50.5,83,30.32,10.0,South,4.6,-,N/A,,Clear,190,2013-01-10 00:55:00
8:15 PM,56.7,50.9,81,30.33,10.0,SSW,3.5,-,N/A,,Clear,210,2013-01-10 01:15:00
8:35 PM,56.1,50.7,82,30.34,10.0,SW,4.6,-,N/A,,Clear,220,2013-01-10 01:35:00
8:55 PM,55.4,50.4,83,30.35,10.0,SW,3.5,-,N/A,,Clear,220,2013-01-10 01:55:00
9:15 PM,55.4,50.7,84,30.35,10.0,SW,3.5,-,N/A,,Clear,230,2013-01-10 02:15:00
9:35 PM,55.4,50.7,84,30.35,10.0,WSW,3.5,-,N/A,,Clear,240,2013-01-10 02:35:00
9:55 PM,55.9,50.7,83,30.35,10.0,West,4.6,-,N/A,,Clear,260,2013-01-10 02:55:00
10:15 PM,55.6,50.4,83,30.35,10.0,West,3.5,-,N/A,,Clear,270,2013-01-10 03:15:00
10:35 PM,54.9,50.2,84,30.35,10.0,West,3.5,-,N/A,,Clear,270,2013-01-10 03:35:00
10:55 PM,54.5,50.0,85,30.35,10.0,West,3.5,-,N/A,,Clear,270,2013-01-10 03:55:00
11:15 PM,53.8,49.8,86,30.36,10.0,West,3.5,-,N/A,,Clear,270,2013-01-10 04:15:00
11:35 PM,53.1,49.5,88,30.36,10.0,West,3.5,-,N/A,,Clear,260,2013-01-10 04:35:00
11:55 PM,52.9,49.6,89,30.37,10.0,West,3.5,-,N/A,,Clear,270,2013-01-10 04:55:00